• In Deutschland
  • Länderverzeichnis
  • Für 7 Tage
  • Wassertemperatur
  • Satellitenkarten
  • Wetterkarte
  • Widgets
  • user-avatar
    Anmelden

    Stündliche Wetter Böblingen

    Heute, 17 Oktober, Dienstag

    Zeit Temperatur Niederschläge Wind Luftdruck Luftfeuchtigkeit
    00:00 +14°C° 0 mm 2 m/S 727 mmHg 73%
    01:00 +14°C° 0 mm 2 m/S 727 mmHg 70%
    02:00 +13°C° 0 mm 2 m/S 727 mmHg 69%
    03:00 +13°C° 0 mm 1 m/S 726 mmHg 69%
    04:00 +13°C° 0 mm 1 m/S 726 mmHg 68%
    05:00 +12°C° 0 mm 1 m/S 726 mmHg 68%
    06:00 +12°C° 0 mm 1 m/S 726 mmHg 67%
    07:00 +11°C° 0 mm 1 m/S 726 mmHg 63%
    08:00 +13°C° 0 mm 1 m/S 726 mmHg 59%
    09:00 +15°C° 0 mm 1 m/S 726 mmHg 55%
    10:00 +19°C° 0 mm 1 m/S 726 mmHg 51%
    11:00 +20°C° 0 mm 1 m/S 726 mmHg 47%
    12:00 +20°C° 0 mm 0 m/S 726 mmHg 44%
    13:00 +21°C° 0 mm 0 m/S 726 mmHg 41%
    14:00 +21°C° 0 mm 0 m/S 725 mmHg 46%
    15:00 +20°C° 0 mm 0 m/S 725 mmHg 50%
    16:00 +20°C° 0 mm 0 m/S 724 mmHg 54%
    17:00 +17°C° 0 mm 0 m/S 724 mmHg 59%
    18:00 +15°C° 0 mm 0 m/S 723 mmHg 63%
    19:00 +13°C° 0 mm 0 m/S 723 mmHg 68%
    20:00 +13°C° 0 mm 1 m/S 723 mmHg 69%
    21:00 +13°C° 0 mm 1 m/S 723 mmHg 70%
    22:00 +13°C° 0 mm 1 m/S 723 mmHg 72%
    23:00 +12°C° 0 mm 1 m/S 723 mmHg 71%

    Morgen, 18 Oktober, Mittwoch

    Zeit Temperatur Niederschläge Wind Luftdruck Luftfeuchtigkeit
    00:00 +12°C° 0 mm 1 m/S 722 mmHg 71%
    01:00 +12°C° 0 mm 1 m/S 722 mmHg 71%
    02:00 +12°C° 0 mm 1 m/S 722 mmHg 70%
    03:00 +12°C° 0 mm 1 m/S 722 mmHg 70%
    04:00 +11°C° 0 mm 1 m/S 721 mmHg 69%
    05:00 +11°C° 0 mm 1 m/S 721 mmHg 68%
    06:00 +11°C° 0 mm 1 m/S 721 mmHg 68%
    07:00 +11°C° 0 mm 1 m/S 721 mmHg 67%
    08:00 +13°C° 0 mm 1 m/S 721 mmHg 62%
    09:00 +15°C° 0 mm 1 m/S 721 mmHg 57%
    10:00 +18°C° 0 mm 1 m/S 721 mmHg 53%
    11:00 +20°C° 0 mm 1 m/S 721 mmHg 49%
    12:00 +21°C° 0 mm 1 m/S 721 mmHg 46%
    13:00 +22°C° 0 mm 1 m/S 721 mmHg 43%
    14:00 +21°C° 0 mm 1 m/S 721 mmHg 47%
    15:00 +21°C° 0 mm 1 m/S 720 mmHg 52%
    16:00 +20°C° 0 mm 1 m/S 720 mmHg 56%
    17:00 +18°C° 0 mm 1 m/S 720 mmHg 61%
    18:00 +15°C° 0 mm 1 m/S 720 mmHg 66%
    19:00 +13°C° 0 mm 1 m/S 720 mmHg 71%
    20:00 +13°C° 0 mm 1 m/S 720 mmHg 72%
    21:00 +12°C° 0 mm 1 m/S 720 mmHg 74%
    22:00 +12°C° 0 mm 1 m/S 720 mmHg 76%
    23:00 +12°C° 0 mm 1 m/S 720 mmHg 77%

    übermorgen, 19 Oktober, Donnerstag

    Zeit Temperatur Niederschläge Wind Luftdruck Luftfeuchtigkeit
    00:00 +11°C° 0 mm 1 m/S 720 mmHg 77%
    01:00 +11°C° 0 mm 1 m/S 720 mmHg 78%
    02:00 +11°C° 0 mm 1 m/S 720 mmHg 78%
    03:00 +11°C° 0 mm 1 m/S 719 mmHg 78%
    04:00 +10°C° 0 mm 1 m/S 719 mmHg 78%
    05:00 +10°C° 0 mm 1 m/S 719 mmHg 77%
    06:00 +10°C° 0 mm 1 m/S 719 mmHg 77%
    07:00 +10°C° 0 mm 1 m/S 719 mmHg 77%
    08:00 +12°C° 0 mm 1 m/S 719 mmHg 72%
    09:00 +14°C° 0 mm 1 m/S 720 mmHg 66%
    10:00 +16°C° 0 mm 1 m/S 720 mmHg 60%
    11:00 +19°C° 0 mm 1 m/S 720 mmHg 56%
    12:00 +20°C° 0 mm 1 m/S 720 mmHg 53%
    13:00 +21°C° 0 mm 1 m/S 720 mmHg 49%
    14:00 +21°C° 0 mm 1 m/S 720 mmHg 53%
    15:00 +20°C° 0 mm 1 m/S 720 mmHg 58%
    16:00 +18°C° 0 mm 0 m/S 719 mmHg 62%
    17:00 +18°C° 0 mm 1 m/S 719 mmHg 66%
    18:00 +15°C° 0 mm 1 m/S 719 mmHg 70%
    19:00 +14°C° 0 mm 1 m/S 719 mmHg 74%
    20:00 +13°C° 0 mm 1 m/S 720 mmHg 75%
    21:00 +13°C° 0 mm 1 m/S 720 mmHg 77%
    22:00 +12°C° 0 mm 1 m/S 720 mmHg 79%
    23:00 +12°C° 0 mm 1 m/S 720 mmHg 79%

    20 Oktober, Freitag

    Zeit Temperatur Niederschläge Wind Luftdruck Luftfeuchtigkeit
    00:00 +12°C° 0 mm 1 m/S 720 mmHg 79%
    01:00 +12°C° 0 mm 1 m/S 720 mmHg 78%
    02:00 +11°C° 0 mm 1 m/S 720 mmHg 77%
    03:00 +11°C° 0 mm 1 m/S 720 mmHg 76%
    04:00 +11°C° 0 mm 1 m/S 720 mmHg 74%
    05:00 +10°C° 0 mm 2 m/S 720 mmHg 73%
    06:00 +10°C° 0 mm 2 m/S 720 mmHg 72%
    07:00 +10°C° 0 mm 2 m/S 720 mmHg 71%
    08:00 +13°C° 0 mm 2 m/S 721 mmHg 66%
    09:00 +15°C° 0 mm 2 m/S 721 mmHg 62%
    10:00 +17°C° 0 mm 2 m/S 722 mmHg 57%
    11:00 +18°C° 0 mm 2 m/S 722 mmHg 55%
    12:00 +19°C° 0 mm 3 m/S 722 mmHg 52%
    13:00 +20°C° 0 mm 3 m/S 722 mmHg 50%
    14:00 +20°C° 0 mm 3 m/S 722 mmHg 54%
    15:00 +20°C° 0 mm 2 m/S 721 mmHg 57%
    16:00 +20°C° 0 mm 1 m/S 721 mmHg 61%
    17:00 +19°C° 0 mm 1 m/S 721 mmHg 66%
    18:00 +16°C° 0 mm 1 m/S 721 mmHg 70%
    19:00 +14°C° 0 mm 1 m/S 721 mmHg 75%
    20:00 +14°C° 0 mm 1 m/S 721 mmHg 75%
    21:00 +13°C° 0 mm 2 m/S 722 mmHg 76%
    22:00 +13°C° 0 mm 2 m/S 722 mmHg 76%
    23:00 +13°C° 0 mm 2 m/S 722 mmHg 75%

    21 Oktober, Samstag

    Zeit Temperatur Niederschläge Wind Luftdruck Luftfeuchtigkeit
    00:00 +13°C° 0 mm 2 m/S 721 mmHg 75%
    01:00 +12°C° 0 mm 2 m/S 721 mmHg 74%
    02:00 +12°C° 0 mm 2 m/S 721 mmHg 74%
    03:00 +12°C° 0 mm 2 m/S 721 mmHg 74%
    04:00 +12°C° 0 mm 2 m/S 721 mmHg 74%
    05:00 +12°C° 0 mm 2 m/S 721 mmHg 74%
    06:00 +12°C° 0 mm 2 m/S 721 mmHg 75%
    07:00 +12°C° 0 mm 2 m/S 720 mmHg 75%
    08:00 +14°C° 0 mm 2 m/S 721 mmHg 69%
    09:00 +16°C° 0 mm 3 m/S 721 mmHg 63%
    10:00 +18°C° 0 mm 3 m/S 721 mmHg 58%
    11:00 +18°C° 0,1 mm 4 m/S 721 mmHg 60%
    12:00 +18°C° 0,1 mm 4 m/S 721 mmHg 61%
    13:00 +17°C° 0,1 mm 5 m/S 721 mmHg 63%
    14:00 +17°C° 0,3 mm 4 m/S 721 mmHg 71%
    15:00 +16°C° 0,3 mm 3 m/S 721 mmHg 78%
    16:00 +13°C° 0,3 mm 3 m/S 721 mmHg 86%
    17:00 +13°C° 0,4 mm 3 m/S 722 mmHg 88%
    18:00 +14°C° 0,4 mm 2 m/S 722 mmHg 90%
    19:00 +13°C° 0,4 mm 2 m/S 722 mmHg 92%
    20:00 +13°C° 0,5 mm 2 m/S 722 mmHg 92%
    21:00 +13°C° 0,5 mm 2 m/S 723 mmHg 92%
    22:00 +12°C° 0,5 mm 2 m/S 723 mmHg 92%
    23:00 +12°C° 0,6 mm 2 m/S 723 mmHg 92%

    22 Oktober, Sonntag

    Zeit Temperatur Niederschläge Wind Luftdruck Luftfeuchtigkeit
    00:00 +12°C° 0,6 mm 2 m/S 723 mmHg 92%
    01:00 +10°C° 0,6 mm 3 m/S 723 mmHg 92%
    02:00 +10°C° 0,4 mm 3 m/S 723 mmHg 91%
    03:00 +10°C° 0,4 mm 3 m/S 723 mmHg 91%
    04:00 +9°C° 0,4 mm 3 m/S 723 mmHg 91%
    05:00 +9°C° 0,3 mm 3 m/S 723 mmHg 91%
    06:00 +8°C° 0,3 mm 3 m/S 723 mmHg 91%
    07:00 +8°C° 0,3 mm 2 m/S 723 mmHg 92%
    08:00 +8°C° 0,1 mm 3 m/S 723 mmHg 88%
    09:00 +9°C° 0,1 mm 3 m/S 724 mmHg 84%
    10:00 +8°C° 0,1 mm 4 m/S 724 mmHg 80%
    11:00 +10°C° 0,2 mm 4 m/S 724 mmHg 77%
    12:00 +10°C° 0,2 mm 4 m/S 724 mmHg 73%
    13:00 +10°C° 0,2 mm 4 m/S 725 mmHg 70%
    14:00 +10°C° 0,1 mm 4 m/S 725 mmHg 70%
    15:00 +10°C° 0,1 mm 3 m/S 725 mmHg 70%
    16:00 +10°C° 0,1 mm 3 m/S 725 mmHg 70%
    17:00 +9°C° 0 mm 3 m/S 725 mmHg 74%
    18:00 +8°C° 0 mm 3 m/S 725 mmHg 78%
    19:00 +6°C° 0 mm 2 m/S 726 mmHg 82%
    20:00 +5°C° 0 mm 3 m/S 726 mmHg 83%
    21:00 +5°C° 0 mm 3 m/S 726 mmHg 84%
    22:00 +4°C° 0 mm 3 m/S 727 mmHg 85%
    23:00 +4°C° 0 mm 3 m/S 727 mmHg 85%
    Mehr zeigen